^^
Station Historical Data
Daily Summary for January 7, 2018 Units:  English    Metric   Both
« Previous Day
Next Day »
Daily Weekly Monthly Yearly Custom
  High: Low: Average:
Temperature: TemperatureF °F 67.8 °F 77.9 °F
Dew Point: DewpointF °F 37.9 °F 43.6 °F
Humidity: Humidity% 17% 30%
Wind Speed: WindSpeedMPHmph 0.0mph 4.7mph
Wind Gust: WindSpeedGustMPHmph - -
Wind- - SSE
Pressure: PressureIn in 30.03 in -
Precipitation: 0.04 in    
Historical Graphs
 
 
Tabular Data for January 7, 2018
Time Temperature Dew Point Pressure Wind Wind Speed Wind Gust Humidity Rainfall Rate (Hourly) solar Conditions
TemperatureF °F DewpointF °F PressureIn in Calm     Humidity% HourlyPrecipIn in SolarRadiationWatts/m^2 W/m2 Conditions
00:00 77.4 °F 44.4 °F 30.09 in WSW 0.9 mph 7.0 mph 31% 0.00 in 0.0 W/m2
00:05 77.2 °F 44.2 °F 30.09 in SW 2.9 mph 3.0 mph 31% 0.00 in 0.0 W/m2
00:10 77.0 °F 44.1 °F 30.09 in WSW 0.9 mph 2.0 mph 31% 0.00 in 0.0 W/m2
00:13 76.8 °F 44.8 °F 30.09 in Calm   3.0 mph 32% 0.00 in 0.0 W/m2
00:18 76.6 °F 44.6 °F 30.09 in SSE 2.0 mph 5.0 mph 32% 0.00 in 0.0 W/m2
00:23 76.5 °F 44.4 °F 30.09 in SE 4.0 mph 4.0 mph 32% 0.00 in 0.0 W/m2
00:29 76.5 °F 44.4 °F 30.09 in SSE 6.9 mph 9.0 mph 32% 0.00 in 0.0 W/m2
00:35 76.3 °F 43.3 °F 30.09 in South 2.9 mph 7.0 mph 31% 0.00 in 0.0 W/m2
00:40 76.5 °F 43.5 °F 30.08 in Calm   4.0 mph 31% 0.00 in 0.0 W/m2
00:42 76.5 °F 43.5 °F 30.09 in SSW 4.9 mph 5.0 mph 31% 0.00 in 0.0 W/m2
00:46 76.5 °F 43.5 °F 30.08 in SSE 6.9 mph 7.0 mph 31% 0.00 in 0.0 W/m2
00:52 76.5 °F 43.5 °F 30.08 in SE 2.0 mph 12.0 mph 31% 0.00 in 0.0 W/m2
00:57 76.6 °F 43.7 °F 30.08 in SSE 4.0 mph 7.0 mph 31% 0.00 in 0.0 W/m2
01:02 76.6 °F 43.7 °F 30.08 in South 0.9 mph 10.0 mph 31% 0.00 in 0.0 W/m2
01:07 76.6 °F 43.7 °F 30.07 in SE 6.0 mph 7.0 mph 31% 0.00 in 0.0 W/m2
01:12 76.6 °F 43.7 °F 30.07 in SSE 2.0 mph 14.0 mph 31% 0.00 in 0.0 W/m2
01:14 76.6 °F 43.7 °F 30.07 in SSW 4.0 mph 10.0 mph 31% 0.00 in 0.0 W/m2
01:19 76.6 °F 43.7 °F 30.07 in SSW 2.9 mph 9.0 mph 31% 0.00 in 0.0 W/m2
01:24 76.6 °F 43.7 °F 30.07 in SSW 4.9 mph 12.0 mph 31% 0.00 in 0.0 W/m2
01:30 76.6 °F 43.7 °F 30.07 in SE 4.9 mph 17.0 mph 31% 0.00 in 0.0 W/m2
01:37 76.6 °F 43.7 °F 30.06 in ESE 4.9 mph 11.0 mph 31% 0.00 in 0.0 W/m2
01:44 76.5 °F 43.5 °F 30.06 in SSE 8.1 mph 10.0 mph 31% 0.00 in 0.0 W/m2
01:49 76.5 °F 43.5 °F 30.06 in SSW 4.9 mph 12.0 mph 31% 0.00 in 0.0 W/m2
01:55 76.5 °F 43.5 °F 30.06 in South 2.9 mph 12.0 mph 31% 0.00 in 0.0 W/m2
02:01 76.5 °F 43.5 °F 30.05 in South 4.9 mph 8.0 mph 31% 0.00 in 0.0 W/m2
02:07 76.3 °F 44.2 °F 30.05 in ESE 12.1 mph 13.0 mph 32% 0.00 in 0.0 W/m2
02:14 76.3 °F 44.2 °F 30.05 in SSE 4.0 mph 12.0 mph 32% 0.00 in 0.0 W/m2
02:24 76.1 °F 44.1 °F 30.05 in SSE 4.9 mph 15.0 mph 32% 0.00 in 0.0 W/m2
02:29 75.9 °F 43.9 °F 30.05 in SSE 2.0 mph 13.0 mph 32% 0.00 in 0.0 W/m2
02:34 75.9 °F 43.9 °F 30.05 in ESE 8.9 mph 15.0 mph 32% 0.00 in 0.0 W/m2
02:39 75.9 °F 43.9 °F 30.05 in ESE 4.0 mph 11.0 mph 32% 0.00 in 0.0 W/m2
02:46 75.7 °F 43.7 °F 30.05 in SSE 4.9 mph 15.0 mph 32% 0.00 in 0.0 W/m2
02:52 75.6 °F 44.4 °F 30.04 in SE 6.9 mph 13.0 mph 33% 0.00 in 0.0 W/m2
02:58 75.4 °F 44.2 °F 30.04 in SSW 4.9 mph 8.0 mph 33% 0.00 in 0.0 W/m2
03:05 75.2 °F 44.1 °F 30.04 in SSE 4.9 mph 8.0 mph 33% 0.00 in 0.0 W/m2
03:10 75.0 °F 44.8 °F 30.04 in SE 8.1 mph 9.0 mph 34% 0.00 in 0.0 W/m2
03:15 74.8 °F 44.6 °F 30.04 in ESE 2.0 mph 9.0 mph 34% 0.00 in 0.0 W/m2
03:16 74.8 °F 44.6 °F 30.04 in SSW 2.9 mph 14.0 mph 34% 0.00 in 0.0 W/m2
03:21 74.8 °F 44.6 °F 30.04 in SSE 4.0 mph 10.0 mph 34% 0.00 in 0.0 W/m2
03:29 74.7 °F 44.4 °F 30.04 in SSE 4.0 mph 8.0 mph 34% 0.00 in 0.0 W/m2
03:30 74.7 °F 44.4 °F 30.04 in SW 4.0 mph 8.0 mph 34% 0.00 in 0.0 W/m2
03:34 74.5 °F 44.2 °F 30.04 in SE 4.0 mph 8.0 mph 34% 0.00 in 0.0 W/m2
03:41 74.5 °F 44.2 °F 30.04 in SE 4.9 mph 7.0 mph 34% 0.00 in 0.0 W/m2
03:46 74.3 °F 45.0 °F 30.04 in SE 2.9 mph 12.0 mph 35% 0.00 in 0.0 W/m2
03:51 74.1 °F 44.8 °F 30.04 in SSE 8.1 mph 9.0 mph 35% 0.00 in 0.0 W/m2
03:58 74.1 °F 44.8 °F 30.04 in South 6.9 mph 14.0 mph 35% 0.00 in 0.0 W/m2
04:08 74.1 °F 45.5 °F 30.04 in East 0.9 mph 10.0 mph 36% 0.00 in 0.0 W/m2
04:13 74.1 °F 45.5 °F 30.04 in SSE 4.0 mph 14.0 mph 36% 0.00 in 0.0 W/m2
04:19 73.9 °F 45.3 °F 30.04 in SE 4.9 mph 7.0 mph 36% 0.00 in 0.0 W/m2
04:24 73.9 °F 45.3 °F 30.04 in Calm   13.0 mph 36% 0.00 in 0.0 W/m2
04:29 73.9 °F 45.3 °F 30.04 in South 4.9 mph 11.0 mph 36% 0.00 in 0.0 W/m2
04:34 73.9 °F 45.3 °F 30.04 in ESE 6.0 mph 8.0 mph 36% 0.00 in 0.0 W/m2
04:41 74.1 °F 45.5 °F 30.04 in SE 4.0 mph 11.0 mph 36% 0.00 in 0.0 W/m2
04:46 74.1 °F 45.5 °F 30.04 in SSE 6.9 mph 11.0 mph 36% 0.00 in 0.0 W/m2
04:51 74.1 °F 44.8 °F 30.04 in South 6.0 mph 15.0 mph 35% 0.00 in 0.0 W/m2
04:57 74.1 °F 44.8 °F 30.04 in SSE 2.9 mph 10.0 mph 35% 0.00 in 0.0 W/m2
04:58 74.1 °F 44.8 °F 30.04 in SSW 8.9 mph 9.0 mph 35% 0.00 in 0.0 W/m2
05:03 74.3 °F 45.0 °F 30.05 in SSW 2.0 mph 13.0 mph 35% 0.00 in 0.0 W/m2
05:08 74.3 °F 45.0 °F 30.05 in South 4.0 mph 11.0 mph 35% 0.00 in 0.0 W/m2
05:13 74.3 °F 45.0 °F 30.05 in SSE 4.0 mph 8.0 mph 35% 0.00 in 0.0 W/m2
05:18 74.1 °F 45.5 °F 30.05 in ENE 0.9 mph 12.0 mph 36% 0.00 in 0.0 W/m2
05:24 74.1 °F 45.5 °F 30.05 in SSE 6.9 mph 14.0 mph 36% 0.00 in 0.0 W/m2
05:30 73.9 °F 45.3 °F 30.05 in South 2.0 mph 6.0 mph 36% 0.00 in 0.0 W/m2
05:35 73.9 °F 45.3 °F 30.05 in SSE 4.9 mph 10.0 mph 36% 0.00 in 0.0 W/m2
05:40 73.8 °F 45.1 °F 30.05 in South 2.9 mph 5.0 mph 36% 0.00 in 0.0 W/m2
05:43 73.8 °F 45.1 °F 30.05 in SSE 11.0 mph 12.0 mph 36% 0.00 in 0.0 W/m2
05:47 73.8 °F 45.9 °F 30.06 in SSW 0.9 mph 11.0 mph 37% 0.00 in 0.0 W/m2
05:52 73.8 °F 45.1 °F 30.06 in SSW 2.0 mph 17.0 mph 36% 0.00 in 0.0 W/m2
05:53 73.8 °F 45.1 °F 30.06 in SE 10.1 mph 17.0 mph 36% 0.00 in 0.0 W/m2
05:58 73.8 °F 45.1 °F 30.06 in WSW 6.9 mph 7.0 mph 36% 0.00 in 0.0 W/m2
06:03 73.8 °F 45.1 °F 30.06 in SSE 6.0 mph 8.0 mph 36% 0.00 in 0.0 W/m2
06:08 73.8 °F 44.4 °F 30.06 in WSW 2.0 mph 8.0 mph 35% 0.00 in 0.0 W/m2
06:15 73.8 °F 44.4 °F 30.06 in South 8.1 mph 11.0 mph 35% 0.00 in 0.0 W/m2
06:22 73.8 °F 44.4 °F 30.06 in WSW 2.9 mph 8.0 mph 35% 0.00 in 0.0 W/m2
06:27 73.6 °F 44.2 °F 30.06 in SW 8.1 mph 11.0 mph 35% 0.00 in 5.0 W/m2
06:32 73.6 °F 45.0 °F 30.06 in SE 4.0 mph 8.0 mph 36% 0.00 in 7.0 W/m2
06:37 73.6 °F 44.2 °F 30.06 in SSE 2.9 mph 7.0 mph 35% 0.00 in 14.0 W/m2
06:43 73.6 °F 45.0 °F 30.06 in South 0.9 mph 10.0 mph 36% 0.00 in 25.0 W/m2
06:44 73.6 °F 44.2 °F 30.07 in SSE 8.9 mph 13.0 mph 35% 0.00 in 26.0 W/m2
06:48 73.6 °F 44.2 °F 30.06 in Calm   6.0 mph 35% 0.00 in 30.0 W/m2
06:49 73.6 °F 44.2 °F 30.06 in SSE 6.9 mph 8.0 mph 35% 0.00 in 30.0 W/m2
06:59 73.8 °F 44.4 °F 30.07 in SE 2.9 mph 10.0 mph 35% 0.00 in 37.0 W/m2
07:04 73.9 °F 44.6 °F 30.07 in SE 6.9 mph 8.0 mph 35% 0.00 in 42.0 W/m2
07:10 73.9 °F 44.6 °F 30.07 in South 6.0 mph 9.0 mph 35% 0.00 in 42.0 W/m2
07:15 74.1 °F 44.8 °F 30.07 in South 2.9 mph 15.0 mph 35% 0.00 in 53.0 W/m2
07:22 74.1 °F 44.8 °F 30.07 in SSE 2.9 mph 14.0 mph 35% 0.00 in 72.0 W/m2
07:25 74.5 °F 44.2 °F 30.07 in South 6.9 mph 9.0 mph 34% 0.00 in 83.0 W/m2
07:27 74.5 °F 44.2 °F 30.07 in South 2.9 mph 11.0 mph 34% 0.00 in 86.0 W/m2
07:32 74.7 °F 44.4 °F 30.07 in SSE 14.1 mph 14.1 mph 34% 0.00 in 90.0 W/m2
07:38 74.8 °F 44.6 °F 30.07 in SE 4.9 mph 10.0 mph 34% 0.00 in 91.0 W/m2
07:42 75.0 °F 44.8 °F 30.07 in South 6.0 mph 10.0 mph 34% 0.00 in 121.0 W/m2
07:47 75.6 °F 45.1 °F 30.07 in SSE 4.0 mph 15.0 mph 34% 0.00 in 165.0 W/m2
07:52 76.1 °F 45.0 °F 30.07 in SE 6.0 mph 9.0 mph 33% 0.00 in 313.0 W/m2
07:59 76.8 °F 44.8 °F 30.08 in SE 8.9 mph 15.0 mph 32% 0.00 in 381.0 W/m2
08:04 77.4 °F 45.1 °F 30.08 in SSW 0.9 mph 11.0 mph 32% 0.00 in 503.0 W/m2
08:09 77.7 °F 45.5 °F 30.08 in South 2.0 mph 6.0 mph 32% 0.00 in 269.0 W/m2
08:11 77.9 °F 44.8 °F 30.08 in South 10.1 mph 16.0 mph 31% 0.00 in 323.0 W/m2
08:14 78.1 °F 45.0 °F 30.08 in South 6.9 mph 11.0 mph 31% 0.00 in 561.0 W/m2
08:16 78.3 °F 45.1 °F 30.08 in ESE 6.0 mph 13.0 mph 31% 0.00 in 591.0 W/m2
08:21 78.8 °F 44.8 °F 30.09 in South 2.0 mph 14.0 mph 30% 0.00 in 624.0 W/m2
08:26 79.5 °F 45.3 °F 30.09 in South 2.9 mph 11.0 mph 30% 0.00 in 601.0 W/m2
08:32 79.3 °F 44.2 °F 30.09 in SSW 8.1 mph 13.0 mph 29% 0.00 in 250.0 W/m2
08:37 79.0 °F 44.1 °F 30.08 in SE 13.0 mph 17.0 mph 29% 0.00 in 316.0 W/m2
08:43 79.0 °F 44.1 °F 30.09 in ESE 4.9 mph 10.0 mph 29% 0.00 in 512.0 W/m2
08:48 79.2 °F 45.1 °F 30.09 in South 2.0 mph 11.0 mph 30% 0.00 in 573.0 W/m2
08:53 79.5 °F 44.4 °F 30.09 in SSW 4.0 mph 13.0 mph 29% 0.00 in 220.0 W/m2
09:02 79.2 °F 43.2 °F 30.08 in SE 4.9 mph 10.0 mph 28% 0.00 in 214.0 W/m2
09:03 79.2 °F 44.2 °F 30.08 in SSW 6.9 mph 13.0 mph 29% 0.00 in 214.0 W/m2
09:08 79.0 °F 43.2 °F 30.09 in SSE 2.9 mph 8.0 mph 28% 0.00 in 548.0 W/m2
09:15 79.3 °F 43.3 °F 30.08 in SSW 4.0 mph 12.0 mph 28% 0.00 in 213.0 W/m2
09:20 79.5 °F 42.6 °F 30.09 in South 2.9 mph 17.0 mph 27% 0.00 in 179.0 W/m2
09:22 79.5 °F 43.5 °F 30.09 in SSE 0.9 mph 5.0 mph 28% 0.00 in 179.0 W/m2
09:32 81.0 °F 41.9 °F 30.09 in SSE 8.9 mph 15.0 mph 25% 0.00 in 740.0 W/m2
09:34 81.1 °F 41.9 °F 30.09 in SE 13.0 mph 15.0 mph 25% 0.00 in 742.0 W/m2
09:38 81.7 °F 41.4 °F 30.09 in SSW 4.0 mph 11.0 mph 24% 0.00 in 751.0 W/m2
09:40 81.9 °F 40.5 °F 30.09 in SSW 4.0 mph 9.0 mph 23% 0.00 in 615.0 W/m2
09:46 82.0 °F 39.4 °F 30.09 in SSE 10.1 mph 15.0 mph 22% 0.00 in 633.0 W/m2
09:52 82.0 °F 39.4 °F 30.09 in SE 6.9 mph 10.0 mph 22% 0.00 in 364.0 W/m2
09:57 81.9 °F 39.2 °F 30.09 in SSW 4.0 mph 10.0 mph 22% 0.00 in 403.0 W/m2
10:03 81.9 °F 39.2 °F 30.09 in South 2.0 mph 13.0 mph 22% 0.00 in 494.0 W/m2
10:04 81.9 °F 40.5 °F 30.09 in SW 2.9 mph 10.0 mph 23% 0.00 in 471.0 W/m2
10:08 82.2 °F 39.6 °F 30.09 in SSW 4.9 mph 11.0 mph 22% 0.00 in 501.0 W/m2
10:10 82.6 °F 39.9 °F 30.09 in SSE 8.1 mph 13.0 mph 22% 0.00 in 501.0 W/m2
10:15 82.8 °F 40.1 °F 30.09 in South 6.9 mph 10.0 mph 22% 0.00 in 410.0 W/m2
10:20 82.6 °F 39.9 °F 30.09 in SE 2.9 mph 12.0 mph 22% 0.00 in 311.0 W/m2
10:22 82.6 °F 39.9 °F 30.09 in SW 2.9 mph 10.0 mph 22% 0.00 in 348.0 W/m2
10:28 83.3 °F 40.5 °F 30.09 in ESE 4.0 mph 16.0 mph 22% 0.00 in 949.0 W/m2
10:30 83.5 °F 40.6 °F 30.09 in SSE 12.1 mph 16.0 mph 22% 0.00 in 940.0 W/m2
10:36 84.6 °F 40.3 °F 30.09 in SSE 4.0 mph 10.0 mph 21% 0.00 in 902.0 W/m2
10:39 85.1 °F 40.8 °F 30.09 in SE 0.9 mph 10.0 mph 21% 0.00 in 904.0 W/m2
10:41 85.5 °F 39.7 °F 30.09 in SSE 4.9 mph 7.0 mph 20% 0.00 in 909.0 W/m2
10:44 85.1 °F 40.8 °F 30.09 in SE 0.9 mph 10.0 mph 21% 0.00 in 904.0 W/m2
10:49 86.0 °F 40.3 °F 30.09 in SSW 4.0 mph 10.0 mph 20% 0.00 in 928.0 W/m2
10:54 86.2 °F 40.5 °F 30.09 in SSE 6.0 mph 12.0 mph 20% 0.00 in 937.0 W/m2
11:00 86.9 °F 39.7 °F 30.09 in ESE 6.9 mph 15.0 mph 19% 0.00 in 951.0 W/m2
11:06 87.4 °F 40.1 °F 30.09 in SSE 6.9 mph 10.0 mph 19% 0.00 in 970.0 W/m2
11:11 88.0 °F 40.6 °F 30.09 in SSW 2.9 mph 15.0 mph 19% 0.00 in 1032.0 W/m2
11:16 88.2 °F 39.4 °F 30.08 in ESE 12.1 mph 12.1 mph 18% 0.00 in 958.0 W/m2
11:22 88.0 °F 40.6 °F 30.08 in ESE 6.9 mph 12.0 mph 19% 0.00 in 1107.0 W/m2
11:27 87.6 °F 40.3 °F 30.08 in East 11.0 mph 13.0 mph 19% 0.00 in 373.0 W/m2
11:33 87.6 °F 40.3 °F 30.08 in ESE 4.0 mph 9.0 mph 19% 0.00 in 1264.0 W/m2
11:38 88.2 °F 40.6 °F 30.08 in SSE 10.1 mph 14.0 mph 19% 0.00 in 1148.0 W/m2
11:43 88.3 °F 39.4 °F 30.08 in SE 8.9 mph 12.0 mph 18% 0.00 in 1197.0 W/m2
11:48 88.2 °F 39.4 °F 30.07 in SE 4.0 mph 13.0 mph 18% 0.00 in 1197.0 W/m2
11:53 88.2 °F 40.6 °F 30.07 in South 4.0 mph 8.0 mph 19% 0.00 in 394.0 W/m2
11:55 88.3 °F 39.4 °F 30.07 in East 2.0 mph 9.0 mph 18% 0.00 in 1197.0 W/m2
12:00 88.0 °F 40.6 °F 30.07 in SE 8.9 mph 9.0 mph 19% 0.00 in 302.0 W/m2
12:06 87.4 °F 40.1 °F 30.07 in SSW 2.9 mph 6.0 mph 19% 0.00 in 297.0 W/m2
12:11 87.6 °F 41.5 °F 30.07 in SE 2.0 mph 9.0 mph 20% 0.00 in 1274.0 W/m2
12:16 88.2 °F 40.6 °F 30.07 in SSE 4.0 mph 6.0 mph 19% 0.00 in 1174.0 W/m2
12:21 88.7 °F 41.2 °F 30.06 in SE 6.0 mph 12.0 mph 19% 0.00 in 1141.0 W/m2
12:22 88.9 °F 39.9 °F 30.06 in Calm   12.0 mph 18% 0.00 in 1151.0 W/m2
12:29 89.6 °F 39.0 °F 30.07 in South 4.9 mph 10.0 mph 17% 0.00 in 1229.0 W/m2
12:34 89.4 °F 40.3 °F 30.06 in SSW 0.9 mph 4.0 mph 18% 0.00 in 1167.0 W/m2
12:40 89.8 °F 39.2 °F 30.06 in WSW 2.9 mph 3.0 mph 17% 0.00 in 1176.0 W/m2
12:43 89.6 °F 39.0 °F 30.06 in SSW 4.0 mph 7.0 mph 17% 0.00 in 1204.0 W/m2
12:48 90.0 °F 40.8 °F 30.05 in SSE 4.9 mph 8.0 mph 18% 0.00 in 1262.0 W/m2
12:54 90.3 °F 39.6 °F 30.05 in ESE 2.9 mph 5.0 mph 17% 0.00 in 232.0 W/m2
12:59 90.0 °F 39.4 °F 30.05 in South 4.0 mph 13.0 mph 17% 0.00 in 199.0 W/m2
13:04 89.1 °F 38.7 °F 30.05 in Calm   6.0 mph 17% 0.00 in 167.0 W/m2
13:09 88.5 °F 39.6 °F 30.05 in SW 0.9 mph 6.0 mph 18% 0.00 in 181.0 W/m2
13:10 88.5 °F 39.6 °F 30.05 in SE 6.9 mph 7.0 mph 18% 0.00 in 179.0 W/m2
13:15 88.2 °F 40.6 °F 30.05 in ESE 4.0 mph 6.0 mph 19% 0.00 in 155.0 W/m2
13:20 87.1 °F 43.7 °F 30.05 in ESE 4.9 mph 6.0 mph 22% 0.00 in 132.0 W/m2
13:25 85.6 °F 43.5 °F 30.06 in SSE 2.9 mph 9.0 mph 23% 0.00 in 128.0 W/m2
13:30 84.4 °F 54.5 °F 30.08 in West 0.9 mph 10.0 mph 36% 0.02 in 139.0 W/m2
13:36 80.8 °F 54.9 °F 30.06 in Calm   5.0 mph 41% 0.04 in 162.0 W/m2
13:45 77.4 °F 53.1 °F 30.04 in Calm   1.0 mph 43% 0.04 in 374.0 W/m2
13:46 77.2 °F 53.6 °F 30.05 in North 4.0 mph 4.0 mph 44% 0.04 in 432.0 W/m2
13:48 76.6 °F 56.7 °F 30.05 in NE 2.0 mph 3.0 mph 50% 0.04 in 316.0 W/m2
13:51 76.3 °F 52.2 °F 30.06 in NE 4.0 mph 7.0 mph 43% 0.04 in 244.0 W/m2
13:56 76.1 °F 48.6 °F 30.06 in SE 2.9 mph 8.0 mph 38% 0.04 in 209.0 W/m2
14:01 76.6 °F 45.3 °F 30.06 in ESE 2.9 mph 13.0 mph 33% 0.04 in 230.0 W/m2
14:07 77.4 °F 44.4 °F 30.06 in NNE 2.9 mph 9.0 mph 31% 0.04 in 251.0 W/m2
14:12 78.1 °F 42.3 °F 30.06 in NNE 2.9 mph 10.0 mph 28% 0.04 in 214.0 W/m2
14:18 78.3 °F 43.3 °F 30.07 in NE 6.9 mph 11.0 mph 29% 0.04 in 206.0 W/m2
14:23 79.9 °F 41.9 °F 30.07 in NE 6.9 mph 9.0 mph 26% 0.04 in 163.0 W/m2
14:29 80.2 °F 42.3 °F 30.08 in SSE 0.9 mph 7.0 mph 26% 0.02 in 178.0 W/m2
14:35 80.6 °F 41.5 °F 30.07 in ESE 10.1 mph 13.0 mph 25% 0.00 in 223.0 W/m2
14:42 81.1 °F 43.0 °F 30.08 in WSW 2.9 mph 5.0 mph 26% 0.00 in 406.0 W/m2
14:47 81.3 °F 45.1 °F 30.07 in SW 2.0 mph 14.0 mph 28% 0.00 in 404.0 W/m2
14:53 81.1 °F 45.0 °F 30.07 in South 2.0 mph 8.0 mph 28% 0.00 in 631.0 W/m2
14:58 81.5 °F 44.2 °F 30.06 in West 10.1 mph 12.0 mph 27% 0.00 in 308.0 W/m2
15:04 81.7 °F 43.5 °F 30.06 in WSW 4.0 mph 12.0 mph 26% 0.00 in 394.0 W/m2
15:09 82.2 °F 43.0 °F 30.06 in SW 4.9 mph 7.0 mph 25% 0.00 in 954.0 W/m2
15:15 83.7 °F 43.0 °F 30.06 in ESE 6.0 mph 8.0 mph 24% 0.00 in 468.0 W/m2
15:20 84.6 °F 41.5 °F 30.05 in SE 0.9 mph 6.0 mph 22% 0.00 in 853.0 W/m2
15:21 84.6 °F 41.5 °F 30.05 in NE 2.0 mph 5.0 mph 22% 0.00 in 853.0 W/m2
15:27 84.9 °F 41.9 °F 30.05 in SE 0.9 mph 10.0 mph 22% 0.00 in 276.0 W/m2
15:33 84.9 °F 41.9 °F 30.05 in South 4.0 mph 6.0 mph 22% 0.00 in 297.0 W/m2
15:38 84.9 °F 43.0 °F 30.05 in Calm   3.0 mph 23% 0.00 in 281.0 W/m2
15:44 84.9 °F 43.0 °F 30.05 in South 0.9 mph 8.0 mph 23% 0.00 in 265.0 W/m2
15:49 84.7 °F 41.7 °F 30.05 in Calm   3.0 mph 22% 0.00 in 272.0 W/m2
15:55 84.7 °F 42.8 °F 30.04 in ENE 2.0 mph 4.0 mph 23% 0.00 in 374.0 W/m2
16:00 84.7 °F 40.5 °F 30.04 in SE 4.0 mph 7.0 mph 21% 0.00 in 269.0 W/m2
16:05 84.7 °F 40.5 °F 30.04 in SE 4.0 mph 5.0 mph 21% 0.00 in 234.0 W/m2
16:10 84.7 °F 40.5 °F 30.04 in SE 4.9 mph 9.0 mph 21% 0.00 in 311.0 W/m2
16:15 85.5 °F 39.7 °F 30.04 in SE 2.9 mph 8.0 mph 20% 0.00 in 872.0 W/m2
16:21 86.5 °F 40.6 °F 30.04 in East 0.9 mph 4.0 mph 20% 0.00 in 315.0 W/m2
16:25 87.3 °F 41.4 °F 30.04 in NNE 0.9 mph 6.0 mph 20% 0.00 in 900.0 W/m2
16:26 87.3 °F 39.9 °F 30.04 in ESE 4.9 mph 5.0 mph 19% 0.00 in 357.0 W/m2
16:31 88.0 °F 39.2 °F 30.04 in SW 2.0 mph 2.0 mph 18% 0.00 in 218.0 W/m2
16:37 88.0 °F 40.6 °F 30.04 in Calm   4.0 mph 19% 0.00 in 179.0 W/m2
16:42 87.6 °F 38.8 °F 30.04 in Calm   2.0 mph 18% 0.00 in 156.0 W/m2
16:45 87.4 °F 40.1 °F 30.04 in East 2.0 mph 5.0 mph 19% 0.00 in 142.0 W/m2
16:48 87.1 °F 38.5 °F 30.04 in East 2.9 mph 5.0 mph 18% 0.00 in 123.0 W/m2
16:54 86.4 °F 37.9 °F 30.04 in SE 4.0 mph 8.0 mph 18% 0.00 in 100.0 W/m2
16:59 85.8 °F 38.8 °F 30.04 in SSE 4.0 mph 10.0 mph 19% 0.00 in 104.0 W/m2
17:04 85.6 °F 38.7 °F 30.03 in ESE 4.0 mph 4.0 mph 19% 0.00 in 118.0 W/m2
17:10 85.3 °F 38.3 °F 30.03 in SE 2.0 mph 6.0 mph 19% 0.00 in 130.0 W/m2
17:11 85.3 °F 38.3 °F 30.03 in SE 2.9 mph 6.0 mph 19% 0.00 in 127.0 W/m2
17:18 84.9 °F 39.4 °F 30.04 in SSE 2.0 mph 6.0 mph 20% 0.00 in 118.0 W/m2
17:23 84.6 °F 41.5 °F 30.04 in ESE 2.9 mph 14.0 mph 22% 0.00 in 120.0 W/m2
17:29 83.8 °F 41.0 °F 30.04 in SSW 6.0 mph 12.0 mph 22% 0.00 in 125.0 W/m2
17:34 82.9 °F 43.5 °F 30.05 in SW 8.9 mph 19.0 mph 25% 0.00 in 90.0 W/m2
17:40 81.3 °F 44.1 °F 30.05 in SSW 8.1 mph 16.0 mph 27% 0.00 in 81.0 W/m2
17:45 80.4 °F 44.2 °F 30.05 in SSW 10.1 mph 10.1 mph 28% 0.00 in 83.0 W/m2
17:52 79.5 °F 44.4 °F 30.06 in SSW 2.9 mph 21.0 mph 29% 0.00 in 97.0 W/m2
17:55 79.0 °F 45.0 °F 30.05 in SSE 4.0 mph 15.0 mph 30% 0.00 in 95.0 W/m2
17:57 78.8 °F 44.8 °F 30.06 in SE 4.9 mph 15.0 mph 30% 0.00 in 95.0 W/m2
18:02 78.3 °F 45.1 °F 30.06 in SE 6.0 mph 10.0 mph 31% 0.00 in 95.0 W/m2
18:08 78.1 °F 45.0 °F 30.06 in SE 13.0 mph 21.0 mph 31% 0.00 in 100.0 W/m2
18:13 77.5 °F 45.3 °F 30.06 in South 8.9 mph 22.0 mph 32% 0.00 in 90.0 W/m2
18:18 77.2 °F 45.0 °F 30.06 in SSW 12.1 mph 15.0 mph 32% 0.00 in 76.0 W/m2
18:25 76.8 °F 45.5 °F 30.07 in SE 6.0 mph 16.0 mph 33% 0.00 in 44.0 W/m2
18:31 76.5 °F 45.1 °F 30.07 in SSE 2.0 mph 13.0 mph 33% 0.00 in 37.0 W/m2
18:36 76.3 °F 45.9 °F 30.07 in SE 19.9 mph 20.0 mph 34% 0.00 in 33.0 W/m2
18:41 76.1 °F 45.7 °F 30.08 in SSE 2.9 mph 15.0 mph 34% 0.00 in 21.0 W/m2
18:46 75.9 °F 46.2 °F 30.08 in South 2.0 mph 15.0 mph 35% 0.00 in 14.0 W/m2
18:51 75.6 °F 46.0 °F 30.09 in South 4.9 mph 12.0 mph 35% 0.00 in 12.0 W/m2
18:58 75.2 °F 46.4 °F 30.09 in SE 13.0 mph 20.0 mph 36% 0.00 in 12.0 W/m2
19:03 75.0 °F 46.2 °F 30.09 in SSW 2.9 mph 9.0 mph 36% 0.00 in 16.0 W/m2
19:08 74.8 °F 47.5 °F 30.09 in ESE 4.9 mph 15.0 mph 38% 0.00 in 14.0 W/m2
19:10 74.7 °F 48.0 °F 30.10 in WSW 14.1 mph 14.1 mph 39% 0.00 in 12.0 W/m2
19:16 74.1 °F 48.2 °F 30.10 in SW 8.1 mph 19.0 mph 40% 0.00 in 11.0 W/m2
19:23 73.6 °F 47.1 °F 30.11 in SE 8.1 mph 10.0 mph 39% 0.00 in 9.0 W/m2
19:26 73.6 °F 47.1 °F 30.12 in South 8.1 mph 20.0 mph 39% 0.00 in 5.0 W/m2
19:28 73.4 °F 46.9 °F 30.12 in SSE 12.1 mph 16.0 mph 39% 0.00 in 5.0 W/m2
19:33 73.4 °F 46.9 °F 30.12 in SE 4.0 mph 12.0 mph 39% 0.00 in 0.0 W/m2
19:36 73.2 °F 46.8 °F 30.12 in SSW 13.0 mph 21.0 mph 39% 0.00 in 0.0 W/m2
19:38 73.2 °F 46.8 °F 30.12 in SSE 12.1 mph 18.0 mph 39% 0.00 in 0.0 W/m2
19:45 73.0 °F 46.6 °F 30.12 in South 8.1 mph 16.0 mph 39% 0.00 in 0.0 W/m2
19:49 73.0 °F 46.6 °F 30.12 in SSE 14.1 mph 18.0 mph 39% 0.00 in 0.0 W/m2
19:55 72.9 °F 46.4 °F 30.12 in SSE 10.1 mph 19.0 mph 39% 0.00 in 0.0 W/m2
20:00 72.9 °F 46.4 °F 30.12 in SE 16.1 mph 19.0 mph 39% 0.00 in 0.0 W/m2
20:05 72.9 °F 46.4 °F 30.13 in SSW 10.1 mph 17.0 mph 39% 0.00 in 0.0 W/m2
20:11 72.9 °F 46.4 °F 30.13 in SSE 14.1 mph 15.0 mph 39% 0.00 in 0.0 W/m2
20:17 72.7 °F 46.2 °F 30.14 in SSE 13.0 mph 16.0 mph 39% 0.00 in 0.0 W/m2
20:24 72.7 °F 46.2 °F 30.14 in SSE 6.0 mph 18.0 mph 39% 0.00 in 0.0 W/m2
20:31 72.7 °F 46.2 °F 30.15 in SSW 11.0 mph 17.0 mph 39% 0.00 in 0.0 W/m2
20:36 72.7 °F 46.2 °F 30.14 in ESE 11.0 mph 14.0 mph 39% 0.00 in 0.0 W/m2
20:42 72.7 °F 46.2 °F 30.15 in South 2.0 mph 10.0 mph 39% 0.00 in 0.0 W/m2
20:49 72.5 °F 46.2 °F 30.16 in SE 10.1 mph 20.0 mph 39% 0.00 in 0.0 W/m2
20:54 72.5 °F 46.2 °F 30.17 in SE 8.9 mph 9.0 mph 39% 0.00 in 0.0 W/m2
21:01 72.5 °F 46.2 °F 30.17 in South 13.0 mph 13.0 mph 39% 0.00 in 0.0 W/m2
21:06 72.5 °F 45.5 °F 30.17 in SE 0.9 mph 8.0 mph 38% 0.00 in 0.0 W/m2
21:11 72.7 °F 45.7 °F 30.17 in SE 6.0 mph 12.0 mph 38% 0.00 in 0.0 W/m2
21:12 72.7 °F 45.7 °F 30.17 in SE 6.9 mph 11.0 mph 38% 0.00 in 0.0 W/m2
21:18 72.9 °F 45.7 °F 30.18 in South 0.9 mph 7.0 mph 38% 0.00 in 0.0 W/m2
21:23 72.9 °F 45.7 °F 30.18 in Calm   5.0 mph 38% 0.00 in 0.0 W/m2
21:28 72.5 °F 49.3 °F 30.16 in ESE 2.9 mph 8.0 mph 44% 0.00 in 0.0 W/m2
21:35 72.0 °F 47.7 °F 30.16 in ENE 2.9 mph 4.0 mph 42% 0.00 in 0.0 W/m2
21:41 71.6 °F 46.0 °F 30.16 in SE 4.0 mph 9.0 mph 40% 0.00 in 0.0 W/m2
21:46 71.4 °F 45.1 °F 30.16 in SE 0.9 mph 7.0 mph 39% 0.00 in 0.0 W/m2
21:52 71.4 °F 44.4 °F 30.15 in SSE 6.9 mph 10.0 mph 38% 0.00 in 0.0 W/m2
21:57 71.4 °F 43.7 °F 30.15 in ESE 6.9 mph 12.0 mph 37% 0.00 in 0.0 W/m2
22:02 71.6 °F 44.6 °F 30.15 in ESE 4.9 mph 9.0 mph 38% 0.00 in 0.0 W/m2
22:07 71.4 °F 44.4 °F 30.15 in ESE 2.0 mph 6.0 mph 38% 0.00 in 0.0 W/m2
22:12 71.6 °F 44.6 °F 30.15 in ESE 6.0 mph 8.0 mph 38% 0.00 in 0.0 W/m2
22:17 71.6 °F 44.6 °F 30.16 in SE 4.9 mph 10.0 mph 38% 0.00 in 0.0 W/m2
22:22 71.6 °F 44.6 °F 30.15 in ESE 2.9 mph 9.0 mph 38% 0.00 in 0.0 W/m2
22:27 71.6 °F 43.9 °F 30.15 in SE 6.9 mph 8.0 mph 37% 0.00 in 0.0 W/m2
22:28 71.6 °F 43.9 °F 30.15 in SSE 4.0 mph 8.0 mph 37% 0.00 in 0.0 W/m2
22:32 71.8 °F 44.1 °F 30.15 in ESE 4.9 mph 10.0 mph 37% 0.00 in 0.0 W/m2
22:33 71.8 °F 44.1 °F 30.15 in SE 2.9 mph 10.0 mph 37% 0.00 in 0.0 W/m2
22:38 71.8 °F 44.1 °F 30.16 in SE 0.9 mph 5.0 mph 37% 0.00 in 0.0 W/m2
22:44 71.6 °F 43.9 °F 30.16 in Calm   3.0 mph 37% 0.00 in 0.0 W/m2
22:52 71.4 °F 43.7 °F 30.16 in SE 0.9 mph 1.0 mph 37% 0.00 in 0.0 W/m2
22:53 71.4 °F 43.7 °F 30.16 in SE 0.9 mph 2.0 mph 37% 0.00 in 0.0 W/m2
22:58 71.2 °F 43.7 °F 30.15 in SE 0.9 mph 3.0 mph 37% 0.00 in 0.0 W/m2
23:04 71.1 °F 43.5 °F 30.15 in NE 0.9 mph 2.0 mph 37% 0.00 in 0.0 W/m2
23:09 70.7 °F 43.2 °F 30.16 in NE 0.9 mph 2.0 mph 37% 0.00 in 0.0 W/m2
23:14 70.5 °F 43.7 °F 30.16 in NNE 0.9 mph 2.0 mph 38% 0.00 in 0.0 W/m2
23:19 70.2 °F 44.1 °F 30.16 in Calm     39% 0.00 in 0.0 W/m2
23:26 70.0 °F 44.6 °F 30.16 in Calm     40% 0.00 in 0.0 W/m2
23:31 69.6 °F 44.2 °F 30.16 in Calm     40% 0.00 in 0.0 W/m2
23:38 69.3 °F 44.6 °F 30.16 in Calm     41% 0.00 in 0.0 W/m2
23:43 68.9 °F 44.8 °F 30.16 in Calm   1.0 mph 42% 0.00 in 0.0 W/m2
23:48 68.7 °F 44.8 °F 30.16 in Calm     42% 0.00 in 0.0 W/m2
23:54 68.4 °F 45.0 °F 30.16 in Calm     43% 0.00 in 0.0 W/m2
23:59 67.8 °F 45.1 °F 30.16 in Calm     44% 0.00 in 0.0 W/m2
Olympia, Windhoek, Namibia
Compliments of Weather Underground - 3.5 mb